Content
SEND FEEDBACK

Daily
Averages
Monthly
Summary
United Kingdom

BRADWELL, ENGLAND


Home > Europe > United Kingdom > England
Elevation: 7 feet     Latitude: 52 36N     Longitude: 001 42E

WEATHER
 
SELECT A DAY
Number of Records: 212,649;   Date Range: 7/1/96 - 9/30/14
 
SHARE

PRINT THIS DATA

[ ← Previous Day ]
WEATHER ALMANAC - JULY 20, 2014
[ Next Day → ]
[ °C ]   °F
Weather ElementAverageHighLow
Temperature67 °F77 °F (12:50 pm)62.6 °F (3:20 pm)
Dewpoint64.4 °F68 °F (12:20 pm)60.8 °F (3:20 pm)
Humidity91.9 %100 % (4:20 am)69 % (12:50 pm)
Barometer29.82 in29.92 in (9:50 pm)29.74 in (4:20 am)
Wind Speed4.4 mph19.6 mph (3:20 pm)
Wind Gust43.7 mph (3:20 pm)
Weather ElementAverage
Visibility4.5 mi
Wind DirectionE (92.9 °)

Weather ElementTotal
Precipitation---
Cooling Degree Days4.8 (Base 65)
Growing Degree Days19.8 (Base 50)
Averaged from 41 records on July 20, 2014
WEATHER CONDITIONS BREAKOUT
WIND DIRECTION BREAKOUT
WEATHER BY HOUR - JULY 20, 2014
[ °C ]   °F
Local TimeTemperatureDewpointHumidityBarometerVisibilityWind DirectionWind SpeedGust SpeedPrecipitationEventsConditions
12:50 AM66.2 °F64.4 °F94 %29.80 in3.1 miSE (140°)8.1 mphRainHeavy Rain
1:20 AM66.2 °F64.4 °F94 %29.77 in3.7 miEast (90°)3.5 mphRainRain
1:50 AM66.2 °F64.4 °F94 %29.77 in3.7 miVariable3.5 mphRainLight Rain
2:20 AM66.2 °F64.4 °F94 %29.77 in4.3 miVariable4.6 mphRainLight Rain
2:50 AM66.2 °F64.4 °F94 %29.77 in6.2 miSSW (200°)6.9 mphPartly Cloudy
4:20 AM64.4 °F64.4 °F100 %29.74 in5.0 miVariable3.5 mph
4:50 AM64.4 °F64.4 °F100 %29.77 in6.2 miSSW (210°)6.9 mph
5:20 AM64.4 °F62.6 °F94 %29.77 in6.2 miSSW (200°)4.6 mph
5:50 AM64.4 °F62.6 °F94 %29.77 in5.6 miSSW (210°)5.8 mph
6:20 AM64.4 °F62.6 °F94 %29.77 inSSW (200°)5.8 mphClear
6:50 AM64.4 °F62.6 °F94 %29.77 inSouth (190°)4.6 mphClear
7:20 AM64.4 °F62.6 °F94 %29.77 inSSE (150°)4.6 mphClear
7:50 AM66.2 °F64.4 °F94 %29.80 inSE (140°)6.9 mphClear
8:20 AM68.0 °F64.4 °F88 %29.80 in4.3 miSouth (190°)4.6 mphPartly Cloudy
8:50 AM69.8 °F66.2 °F88 %29.80 in4.3 miSSW (210°)5.8 mphScattered Clouds
9:20 AM69.8 °F66.2 °F88 %29.80 in4.3 miSSW (200°)5.8 mphMostly Cloudy
9:50 AM68.0 °F66.2 °F94 %29.80 in5.0 miVariable3.5 mphMostly Cloudy
10:50 AM71.6 °F66.2 °F83 %29.80 in3.7 miVariable1.2 mphMostly Cloudy
11:50 AM71.6 °F66.2 °F83 %29.80 in5.6 miVariable2.3 mphMostly Cloudy
12:20 PM73.4 °F68.0 °F83 %29.80 in5.6 miVariable1.2 mphScattered Clouds
12:50 PM77.0 °F66.2 °F69 %29.80 in6.2 miVariable2.3 mphScattered Clouds
1:20 PM77.0 °F66.2 °F69 %29.80 in6.2 miVariable2.3 mphScattered Clouds
1:50 PM77.0 °F66.2 °F69 %29.80 in6.2 miNNW (340°)4.6 mphScattered Clouds
2:20 PM75.2 °F66.2 °F73 %29.80 in5.6 miVariable2.3 mphScattered Clouds
2:50 PM73.4 °F66.2 °F78 %29.83 in5.6 miENE (70°)6.9 mphThunderstormScattered Clouds
3:20 PM62.6 °F60.8 °F94 %29.86 in0.3 miVariable19.6 mph43.7 mphRain-ThunderstormHeavy Thunderstorms and Rain
3:50 PM64.4 °F62.6 °F94 %29.86 in3.1 miNorth (360°)2.3 mphRain-ThunderstormHeavy Thunderstorms and Rain
4:20 PM64.4 °F64.4 °F100 %29.83 in5.6 miNW (320°)6.9 mphRainRain
4:50 PM64.4 °F64.4 °F100 %29.86 in5.0 miVariable1.2 mphRainRain
5:20 PM66.2 °F64.4 °F94 %29.86 in6.2 miVariable5.8 mphPartly Cloudy
5:50 PM66.2 °F66.2 °F100 %29.86 in5.6 miNorth (10°)4.6 mphPartly Cloudy
6:20 PM66.2 °F66.2 °F100 %29.86 in6.2 miNNE (20°)3.5 mphPartly Cloudy
7:20 PM66.2 °F66.2 °F100 %29.86 in5.6 miNorth (360°)4.6 mphScattered Clouds
8:20 PM64.4 °F64.4 °F100 %29.89 in4.3 miVariable3.5 mphScattered Clouds
8:50 PM64.4 °F64.4 °F100 %29.89 in3.7 miVariable3.5 mphScattered Clouds
9:20 PM64.4 °F62.6 °F94 %29.89 in3.7 miVariable2.3 mphScattered Clouds
9:50 PM62.6 °F62.6 °F100 %29.92 in3.1 miCalmMostly Cloudy
10:20 PM64.4 °F62.6 °F94 %29.92 inVariable3.5 mphPartly Cloudy
10:50 PM62.6 °F62.6 °F100 %29.92 in1.8 miVariable2.3 mphMostly Cloudy
11:20 PM62.6 °F62.6 °F100 %29.92 in1.6 miVariable2.3 mphMostly Cloudy
11:50 PM62.6 °F62.6 °F100 %29.92 in1.2 miVariable3.5 mphPartly Cloudy
Hourly data recorded from EGSH, located miles away from Bradwell, England







STORIES FROM OUR PARTNERS